| time (UTC) | temp C | wind direction | speed KPH | gust KPH | rain 1hr cm | rain 24hr cm | rain mn cm | humidity % | barometer mb |
| 20260503060144 | 4 | 167 | 0.0 | 3.2 | 0.00 | 0.00 | 0.00 | 63 | 1015.0 |
| 20260503054649 | 4 | 166 | 0.0 | 3.2 | 0.00 | 0.00 | 0.00 | 63 | 1015.2 |
| 20260503054139 | 4 | 167 | 0.0 | 4.8 | 0.00 | 0.00 | 0.00 | 64 | 1015.2 |
| 20260503053630 | 4 | 170 | 0.0 | 1.6 | 0.00 | 0.00 | 0.00 | 64 | 1015.3 |
| 20260503053149 | 4 | 171 | 0.0 | 1.6 | 0.00 | 0.00 | 0.00 | 64 | 1015.3 |
| 20260503052640 | 5 | 173 | 0.0 | 1.6 | 0.00 | 0.00 | 0.00 | 64 | 1015.3 |
| 20260503052150 | 5 | 173 | 0.0 | 3.2 | 0.00 | 0.00 | 0.00 | 64 | 1015.4 |
| 20260503051625 | 5 | 178 | 1.6 | 3.2 | 0.00 | 0.00 | 0.00 | 65 | 1015.5 |
| 20260503051136 | 5 | 180 | 0.0 | 1.6 | 0.00 | 0.00 | 0.00 | 65 | 1015.5 |
| 20260503050626 | 5 | 180 | 0.0 | 3.2 | 0.00 | 0.00 | 0.00 | 65 | 1015.6 |
| 20260503050142 | 5 | 180 | 0.0 | 4.8 | 0.00 | 0.00 | 0.00 | 65 | 1015.6 |
| 20260503045629 | 5 | 180 | 0.0 | 4.8 | 0.00 | 0.00 | 0.00 | 65 | 1015.6 |
| 20260503045150 | 5 | 180 | 0.0 | 3.2 | 0.00 | 0.00 | 0.00 | 65 | 1015.8 |
| 20260503044644 | 5 | 179 | 0.0 | 3.2 | 0.00 | 0.00 | 0.00 | 65 | 1015.8 |
| 20260503044134 | 5 | 179 | 1.6 | 3.2 | 0.00 | 0.00 | 0.00 | 65 | 1015.8 |
| 20260503043625 | 5 | 178 | 1.6 | 3.2 | 0.00 | 0.00 | 0.00 | 65 | 1015.9 |
| 20260503043140 | 5 | 177 | 1.6 | 3.2 | 0.00 | 0.00 | 0.00 | 65 | 1015.9 |
| 20260503042631 | 5 | 175 | 1.6 | 4.8 | 0.00 | 0.00 | 0.00 | 65 | 1015.9 |
| 20260503042143 | 5 | 174 | 1.6 | 4.8 | 0.00 | 0.00 | 0.00 | 64 | 1015.9 |
| 20260503041702 | 5 | 175 | 0.0 | 3.2 | 0.00 | 0.00 | 0.00 | 64 | 1016.1 |
| 20260503041132 | 5 | 178 | 0.0 | 3.2 | 0.00 | 0.00 | 0.00 | 64 | 1016.1 |
| 20260503040642 | 5 | 179 | 0.0 | 3.2 | 0.00 | 0.00 | 0.00 | 64 | 1016.1 |
| 20260503040137 | 5 | 178 | 0.0 | 3.2 | 0.00 | 0.00 | 0.00 | 64 | 1016.2 |
| 20260503035628 | 5 | 360 | 1.6 | 3.2 | 0.00 | 0.00 | 0.00 | 64 | 1016.3 |
| 20260503035139 | 5 | 360 | 0.0 | 1.6 | 0.00 | 0.00 | 0.00 | 63 | 1016.3 |
| 20260503034700 | 5 | 360 | 0.0 | 3.2 | 0.00 | 0.00 | 0.00 | 63 | 1016.4 |
| 20260503034126 | 5 | 360 | 0.0 | 3.2 | 0.00 | 0.00 | 0.00 | 63 | 1016.4 |
| 20260503033657 | 5 | 360 | 0.0 | 1.6 | 0.00 | 0.00 | 0.00 | 63 | 1016.4 |
| 20260503033140 | 5 | 360 | 0.0 | 3.2 | 0.00 | 0.00 | 0.00 | 62 | 1016.4 |
| 20260503032631 | 5 | 360 | 0.0 | 3.2 | 0.00 | 0.00 | 0.00 | 62 | 1016.5 |
| 20260503032141 | 5 | 360 | 0.0 | 1.6 | 0.00 | 0.00 | 0.00 | 62 | 1016.5 |
| 20260503031636 | 5 | 360 | 0.0 | 0.0 | 0.00 | 0.00 | 0.00 | 62 | 1016.5 |
| 20260503031126 | 5 | 360 | 0.0 | 0.0 | 0.00 | 0.00 | 0.00 | 62 | 1016.4 |
| 20260503030632 | 5 | 360 | 0.0 | 0.0 | 0.00 | 0.00 | 0.00 | 62 | 1016.5 |
| 20260503030128 | 5 | 360 | 0.0 | 0.0 | 0.00 | 0.00 | 0.00 | 62 | 1016.6 |
| 20260503025648 | 5 | 360 | 0.0 | 1.6 | 0.00 | 0.00 | 0.00 | 62 | 1016.6 |
| 20260503025138 | 5 | 360 | 0.0 | 1.6 | 0.00 | 0.00 | 0.00 | 61 | 1016.7 |
| 20260503024634 | 5 | 360 | 0.0 | 1.6 | 0.00 | 0.00 | 0.00 | 61 | 1016.7 |
| 20260503024143 | 5 | 360 | 0.0 | 1.6 | 0.00 | 0.00 | 0.00 | 61 | 1016.7 |
| 20260503023633 | 5 | 360 | 0.0 | 3.2 | 0.00 | 0.00 | 0.00 | 61 | 1016.8 |
| 20260503023133 | 5 | 360 | 0.0 | 3.2 | 0.00 | 0.00 | 0.00 | 60 | 1016.8 |
| 20260503022644 | 5 | 360 | 0.0 | 3.2 | 0.00 | 0.00 | 0.00 | 60 | 1016.7 |
| 20260503022134 | 5 | 360 | 0.0 | 4.8 | 0.00 | 0.00 | 0.00 | 60 | 1016.7 |
| 20260503021629 | 6 | 360 | 1.6 | 4.8 | 0.00 | 0.00 | 0.00 | 59 | 1016.8 |
| 20260503021140 | 6 | 360 | 3.2 | 6.4 | 0.00 | 0.00 | 0.00 | 59 | 1016.8 |
| 20260503020629 | 6 | 360 | 3.2 | 6.4 | 0.00 | 0.00 | 0.00 | 58 | 1016.8 |
| 20260503020152 | 6 | 360 | 1.6 | 6.4 | 0.00 | 0.00 | 0.00 | 58 | 1016.8 |
| 20260503015638 | 6 | 360 | 3.2 | 9.7 | 0.00 | 0.00 | 0.00 | 57 | 1016.8 |
| 20260503015128 | 6 | 360 | 6.4 | 14.5 | 0.00 | 0.00 | 0.00 | 57 | 1016.7 |
| 20260503014643 | 6 | 360 | 6.4 | 14.5 | 0.00 | 0.00 | 0.00 | 56 | 1016.7 |
| 20260503014134 | 6 | 360 | 3.2 | 9.7 | 0.00 | 0.00 | 0.00 | 56 | 1016.7 |
| 20260503013625 | 6 | 360 | 6.4 | 12.9 | 0.00 | 0.00 | 0.00 | 56 | 1016.6 |
| 20260503013148 | 6 | 360 | 6.4 | 16.1 | 0.00 | 0.00 | 0.00 | 55 | 1016.6 |
| 20260503012639 | 6 | 360 | 6.4 | 20.9 | 0.00 | 0.00 | 0.00 | 54 | 1016.6 |
| 20260503012146 | 7 | 360 | 11.3 | 20.9 | 0.00 | 0.00 | 0.00 | 54 | 1016.6 |
| 20260503011650 | 7 | 360 | 6.4 | 19.3 | 0.00 | 0.00 | 0.00 | 53 | 1016.6 |
| 20260503011130 | 7 | 360 | 9.7 | 19.3 | 0.00 | 0.00 | 0.00 | 52 | 1016.6 |
| 20260503010649 | 7 | 360 | 6.4 | 14.5 | 0.00 | 0.00 | 0.00 | 52 | 1016.6 |
| 20260503010144 | 7 | 360 | 6.4 | 16.1 | 0.00 | 0.00 | 0.00 | 51 | 1016.5 |
| 20260503005655 | 7 | 360 | 8.0 | 16.1 | 0.00 | 0.00 | 0.00 | 51 | 1016.5 |
| 20260503005124 | 7 | 360 | 6.4 | 14.5 | 0.00 | 0.00 | 0.00 | 50 | 1016.5 |
| 20260503004644 | 7 | 360 | 6.4 | 12.9 | 0.00 | 0.00 | 0.00 | 50 | 1016.5 |
| 20260503004126 | 7 | 360 | 4.8 | 12.9 | 0.00 | 0.00 | 0.00 | 49 | 1016.5 |
| 20260503003706 | 8 | 360 | 6.4 | 14.5 | 0.00 | 0.00 | 0.00 | 48 | 1016.4 |
| 20260503003138 | 8 | 360 | 6.4 | 14.5 | 0.00 | 0.00 | 0.00 | 48 | 1016.4 |
| 20260503002637 | 8 | 360 | 4.8 | 14.5 | 0.00 | 0.00 | 0.00 | 48 | 1016.5 |
| 20260503002148 | 8 | 360 | 8.0 | 16.1 | 0.00 | 0.00 | 0.00 | 47 | 1016.5 |
| 20260503001638 | 8 | 360 | 4.8 | 17.7 | 0.00 | 0.00 | 0.00 | 47 | 1016.5 |
| 20260503001128 | 8 | 360 | 8.0 | 20.9 | 0.00 | 0.00 | 0.00 | 46 | 1016.6 |
| 20260503000639 | 8 | 360 | 9.7 | 20.9 | 0.00 | 0.00 | 0.00 | 46 | 1016.6 |
| 20260503000204 | 9 | 360 | 6.4 | 16.1 | 0.00 | 0.00 | 0.00 | 45 | 1016.6 |
| 20260502235632 | 9 | 360 | 8.0 | 16.1 | 0.00 | 0.00 | 0.00 | 44 | 1016.6 |
| 20260502235143 | 10 | 360 | 6.4 | 22.5 | 0.00 | 0.00 | 0.00 | 44 | 1016.6 |
| 20260502234638 | 9 | 360 | 9.7 | 22.5 | 0.00 | 0.00 | 0.00 | 44 | 1016.6 |
| 20260502234129 | 10 | 360 | 11.3 | 20.9 | 0.00 | 0.00 | 0.00 | 43 | 1016.6 |
| 20260502233632 | 10 | 360 | 11.3 | 19.3 | 0.00 | 0.00 | 0.00 | 43 | 1016.6 |
| 20260502233137 | 10 | 360 | 9.7 | 19.3 | 0.00 | 0.00 | 0.00 | 42 | 1016.6 |
| 20260502232648 | 10 | 360 | 6.4 | 19.3 | 0.00 | 0.00 | 0.00 | 42 | 1016.6 |
| 20260502232138 | 10 | 360 | 11.3 | 19.3 | 0.00 | 0.00 | 0.00 | 42 | 1016.6 |
| 20260502231633 | 10 | 360 | 11.3 | 19.3 | 0.00 | 0.00 | 0.00 | 41 | 1016.6 |
| 20260502231213 | 10 | 360 | 4.8 | 22.5 | 0.00 | 0.00 | 0.00 | 42 | 1016.7 |
| 20260502230644 | 10 | 360 | 14.5 | 22.5 | 0.00 | 0.00 | 0.00 | 42 | 1016.8 |
| 20260502230133 | 10 | 360 | 11.3 | 20.9 | 0.00 | 0.00 | 0.00 | 41 | 1016.8 |
| 20260502225705 | 10 | 360 | 11.3 | 19.3 | 0.00 | 0.00 | 0.00 | 39 | 1016.7 |
| 20260502225204 | 10 | 360 | 8.0 | 25.7 | 0.00 | 0.00 | 0.00 | 40 | 1016.7 |
| 20260502224637 | 10 | 360 | 11.3 | 20.9 | 0.00 | 0.00 | 0.00 | 38 | 1016.8 |
| 20260502224129 | 10 | 360 | 9.7 | 20.9 | 0.00 | 0.00 | 0.00 | 40 | 1016.8 |
| 20260502223639 | 10 | 360 | 12.9 | 20.9 | 0.00 | 0.00 | 0.00 | 40 | 1016.8 |
| 20260502223130 | 10 | 360 | 11.3 | 19.3 | 0.00 | 0.00 | 0.00 | 40 | 1016.8 |
| 20260502222641 | 10 | 360 | 4.8 | 19.3 | 0.00 | 0.00 | 0.00 | 41 | 1016.8 |
| 20260502222132 | 10 | 360 | 9.7 | 22.5 | 0.00 | 0.00 | 0.00 | 41 | 1016.8 |
| 20260502221636 | 10 | 360 | 12.9 | 22.5 | 0.00 | 0.00 | 0.00 | 41 | 1016.8 |
| 20260502221147 | 10 | 360 | 16.1 | 24.1 | 0.00 | 0.00 | 0.00 | 41 | 1016.9 |
| 20260502220637 | 10 | 360 | 12.9 | 22.5 | 0.00 | 0.00 | 0.00 | 41 | 1016.8 |
| 20260502220152 | 10 | 360 | 9.7 | 22.5 | 0.00 | 0.00 | 0.00 | 42 | 1016.9 |
| 20260502215647 | 10 | 360 | 11.3 | 25.7 | 0.00 | 0.00 | 0.00 | 41 | 1016.9 |
| 20260502215158 | 10 | 360 | 16.1 | 25.7 | 0.00 | 0.00 | 0.00 | 41 | 1016.8 |
| 20260502214631 | 10 | 360 | 12.9 | 20.9 | 0.00 | 0.00 | 0.00 | 42 | 1016.9 |
| 20260502214143 | 10 | 360 | 11.3 | 29.0 | 0.00 | 0.00 | 0.00 | 42 | 1017.0 |
| 20260502213632 | 10 | 360 | 12.9 | 29.0 | 0.00 | 0.00 | 0.00 | 42 | 1016.9 |
| 20260502213127 | 10 | 360 | 8.0 | 22.5 | 0.00 | 0.00 | 0.00 | 42 | 1016.9 |
| 20260502212647 | 10 | 360 | 9.7 | 24.1 | 0.00 | 0.00 | 0.00 | 44 | 1017.0 |
| 20260502212138 | 10 | 360 | 14.5 | 25.7 | 0.00 | 0.00 | 0.00 | 44 | 1016.8 |
| 20260502211628 | 10 | 360 | 14.5 | 25.7 | 0.00 | 0.00 | 0.00 | 43 | 1016.9 |
| 20260502211138 | 10 | 360 | 12.9 | 30.6 | 0.00 | 0.00 | 0.00 | 43 | 1017.0 |
| 20260502210628 | 10 | 360 | 17.7 | 30.6 | 0.00 | 0.00 | 0.00 | 43 | 1017.0 |
| 20260502210211 | 10 | 360 | 11.3 | 20.9 | 0.00 | 0.00 | 0.00 | 44 | 1017.1 |
| 20260502205640 | 10 | 360 | 9.7 | 25.7 | 0.00 | 0.00 | 0.00 | 46 | 1017.1 |
| 20260502205130 | 10 | 360 | 16.1 | 25.7 | 0.00 | 0.00 | 0.00 | 44 | 1017.2 |
| 20260502204625 | 10 | 360 | 11.3 | 22.5 | 0.00 | 0.00 | 0.00 | 45 | 1017.2 |
| 20260502204132 | 10 | 360 | 9.7 | 20.9 | 0.00 | 0.00 | 0.00 | 45 | 1017.2 |
| 20260502203642 | 10 | 360 | 9.7 | 22.5 | 0.00 | 0.00 | 0.00 | 46 | 1017.3 |
| 20260502203146 | 10 | 360 | 9.7 | 22.5 | 0.00 | 0.00 | 0.00 | 45 | 1017.3 |
| 20260502202656 | 10 | 360 | 11.3 | 25.7 | 0.00 | 0.00 | 0.00 | 46 | 1017.4 |
| 20260502202125 | 10 | 360 | 12.9 | 25.7 | 0.00 | 0.00 | 0.00 | 46 | 1017.4 |
| 20260502201649 | 10 | 360 | 12.9 | 24.1 | 0.00 | 0.00 | 0.00 | 48 | 1017.4 |
| 20260502201135 | 10 | 360 | 12.9 | 22.5 | 0.00 | 0.00 | 0.00 | 46 | 1017.5 |
| 20260502200625 | 10 | 360 | 8.0 | 22.5 | 0.00 | 0.00 | 0.00 | 48 | 1017.6 |
| 20260502200141 | 9 | 360 | 8.0 | 29.0 | 0.00 | 0.00 | 0.00 | 48 | 1017.5 |
| 20260502195632 | 9 | 360 | 17.7 | 29.0 | 0.00 | 0.00 | 0.00 | 48 | 1017.6 |
| 20260502195142 | 9 | 360 | 9.7 | 29.0 | 0.00 | 0.00 | 0.00 | 49 | 1017.7 |
| 20260502194646 | 9 | 360 | 12.9 | 24.1 | 0.00 | 0.00 | 0.00 | 49 | 1017.9 |
| 20260502194136 | 9 | 360 | 11.3 | 22.5 | 0.00 | 0.00 | 0.00 | 49 | 1017.9 |
| 20260502193641 | 9 | 360 | 11.3 | 19.3 | 0.00 | 0.00 | 0.00 | 50 | 1018.0 |
| 20260502193136 | 8 | 360 | 9.7 | 25.7 | 0.00 | 0.00 | 0.00 | 49 | 1018.0 |
| 20260502192627 | 8 | 360 | 16.1 | 25.7 | 0.00 | 0.00 | 0.00 | 50 | 1018.1 |
| 20260502192207 | 8 | 360 | 8.0 | 20.9 | 0.00 | 0.00 | 0.00 | 50 | 1018.1 |
| 20260502191641 | 9 | 360 | 11.3 | 30.6 | 0.00 | 0.00 | 0.00 | 48 | 1018.1 |
| 20260502191132 | 9 | 360 | 9.7 | 22.5 | 0.00 | 0.00 | 0.00 | 49 | 1018.1 |
| 20260502190702 | 9 | 360 | 12.9 | 27.4 | 0.00 | 0.00 | 0.00 | 50 | 1018.2 |
| 20260502190140 | 9 | 360 | 11.3 | 24.1 | 0.00 | 0.00 | 0.00 | 51 | 1018.3 |
| 20260502185651 | 10 | 360 | 11.3 | 24.1 | 0.00 | 0.00 | 0.00 | 50 | 1018.3 |
| 20260502185202 | 9 | 360 | 11.3 | 24.1 | 0.00 | 0.00 | 0.00 | 52 | 1018.3 |
| 20260502184636 | 8 | 360 | 11.3 | 24.1 | 0.00 | 0.00 | 0.00 | 51 | 1018.4 |
| 20260502184127 | 8 | 360 | 9.7 | 17.7 | 0.00 | 0.00 | 0.00 | 51 | 1018.3 |
| 20260502183636 | 8 | 360 | 9.7 | 19.3 | 0.00 | 0.00 | 0.00 | 51 | 1018.4 |
| 20260502183139 | 8 | 360 | 12.9 | 19.3 | 0.00 | 0.00 | 0.00 | 51 | 1018.5 |
| 20260502182645 | 8 | 360 | 9.7 | 22.5 | 0.00 | 0.00 | 0.00 | 51 | 1018.5 |
| 20260502182135 | 8 | 360 | 8.0 | 17.7 | 0.00 | 0.00 | 0.00 | 52 | 1018.5 |
| 20260502181630 | 8 | 360 | 6.4 | 14.5 | 0.00 | 0.00 | 0.00 | 50 | 1018.5 |
| 20260502181142 | 8 | 360 | 6.4 | 19.3 | 0.00 | 0.00 | 0.00 | 51 | 1018.6 |
| 20260502180631 | 8 | 360 | 9.7 | 22.5 | 0.00 | 0.00 | 0.00 | 51 | 1018.6 |
| 20260502180155 | 8 | 232 | 11.3 | 20.9 | 0.00 | 0.00 | 0.00 | 52 | 1018.6 |
| 20260502170128 | 7 | 360 | 8.0 | 19.3 | 0.00 | 0.00 | 0.00 | 55 | 1018.9 |
| 20260502164135 | 7 | 360 | 1.6 | 12.9 | 0.00 | 0.00 | 0.00 | 53 | 1019.2 |
| 20260502163641 | 7 | 360 | 6.4 | 14.5 | 0.00 | 0.00 | 0.00 | 53 | 1019.3 |
| 20260502163145 | 7 | 360 | 6.4 | 14.5 | 0.00 | 0.00 | 0.00 | 54 | 1019.3 |
| 20260502162626 | 7 | 312 | 6.4 | 17.7 | 0.00 | 0.00 | 0.00 | 55 | 1019.3 |
| 20260502162146 | 7 | 360 | 8.0 | 17.7 | 0.00 | 0.00 | 0.00 | 56 | 1019.3 |
| 20260502161641 | 7 | 360 | 6.4 | 16.1 | 0.00 | 0.00 | 0.00 | 56 | 1019.3 |
| 20260502161133 | 7 | 360 | 4.8 | 17.7 | 0.00 | 0.00 | 0.00 | 55 | 1019.4 |
| 20260502160642 | 7 | 360 | 9.7 | 24.1 | 0.00 | 0.00 | 0.00 | 55 | 1019.6 |
| 20260502160134 | 7 | 360 | 6.4 | 16.1 | 0.00 | 0.00 | 0.00 | 57 | 1019.5 |
| 20260502152159 | 6 | 33 | 8.0 | 20.9 | 0.00 | 0.00 | 0.00 | 57 | 1019.6 |
| 20260502151633 | 6 | 360 | 9.7 | 20.9 | 0.00 | 0.00 | 0.00 | 58 | 1019.5 |
| 20260502151143 | 6 | 360 | 8.0 | 16.1 | 0.00 | 0.00 | 0.00 | 57 | 1019.5 |
| 20260502150632 | 6 | 323 | 6.4 | 16.1 | 0.00 | 0.00 | 0.00 | 57 | 1019.5 |
| 20260502150136 | 6 | 360 | 6.4 | 14.5 | 0.00 | 0.00 | 0.00 | 57 | 1019.6 |
| 20260502130638 | 5 | 360 | 3.2 | 8.0 | 0.00 | 0.00 | 0.00 | 75 | 1019.9 |
| 20260502130142 | 4 | 360 | 3.2 | 8.0 | 0.00 | 0.00 | 0.00 | 77 | 1019.9 |
| 20260502123636 | 3 | 360 | 8.0 | 14.5 | 0.00 | 0.00 | 0.00 | 80 | 1019.8 |
| 20260502123135 | 3 | 360 | 8.0 | 12.9 | 0.00 | 0.00 | 0.00 | 81 | 1019.9 |
| 20260502122626 | 3 | 360 | 4.8 | 12.9 | 0.00 | 0.00 | 0.00 | 81 | 1019.9 |
| 20260502122137 | 3 | 333 | 6.4 | 12.9 | 0.00 | 0.00 | 0.00 | 81 | 1019.9 |
| 20260502121632 | 3 | 360 | 3.2 | 6.4 | 0.00 | 0.00 | 0.00 | 83 | 1020.0 |
| 20260502121212 | 2 | 331 | 1.6 | 8.0 | 0.00 | 0.00 | 0.00 | 84 | 1020.0 |
| 20260502120640 | 2 | 360 | 3.2 | 12.9 | 0.00 | 0.00 | 0.00 | 84 | 1020.0 |
| 20260502120135 | 2 | 360 | 3.2 | 12.9 | 0.00 | 0.00 | 0.00 | 84 | 1019.9 |
| 20260502115641 | 2 | 360 | 6.4 | 12.9 | 0.00 | 0.00 | 0.00 | 84 | 1019.9 |
| 20260502115152 | 2 | 360 | 3.2 | 8.0 | 0.00 | 0.00 | 0.00 | 84 | 1019.9 |
| 20260502114635 | 1 | 329 | 1.6 | 8.0 | 0.00 | 0.00 | 0.00 | 84 | 1019.9 |
| 20260502114145 | 1 | 360 | 3.2 | 8.0 | 0.00 | 0.00 | 0.00 | 85 | 1019.9 |
| 20260502113634 | 1 | 360 | 1.6 | 4.8 | 0.00 | 0.00 | 0.00 | 85 | 1019.9 |
| 20260502113128 | 1 | 288 | 0.0 | 0.0 | 0.00 | 0.00 | 0.00 | 86 | 1019.8 |
| 20260502112639 | 0 | 360 | 0.0 | 0.0 | 0.00 | 0.00 | 0.00 | 86 | 1019.7 |
| 20260502112126 | 0 | 360 | 0.0 | 0.0 | 0.00 | 0.00 | 0.00 | 86 | 1019.7 |
| 20260502111650 | 0 | 360 | 0.0 | 0.0 | 0.00 | 0.00 | 0.00 | 85 | 1019.7 |
| 20260502111132 | 0 | 360 | 0.0 | 0.0 | 0.00 | 0.00 | 0.00 | 86 | 1019.7 |
| 20260502110651 | 0 | 360 | 0.0 | 0.0 | 0.00 | 0.00 | 0.00 | 86 | 1019.7 |
| 20260502110214 | 0 | 360 | 0.0 | 0.0 | 0.00 | 0.00 | 0.00 | 85 | 1019.7 |
| 20260502105644 | 0 | 360 | 0.0 | 0.0 | 0.00 | 0.00 | 0.00 | 85 | 1019.6 |
| 20260502105130 | 0 | 360 | 0.0 | 0.0 | 0.00 | 0.00 | 0.00 | 85 | 1019.6 |
| 20260502104644 | 0 | 360 | 0.0 | 0.0 | 0.00 | 0.00 | 0.00 | 85 | 1019.6 |
| 20260502104135 | 0 | 360 | 0.0 | 0.0 | 0.00 | 0.00 | 0.00 | 84 | 1019.7 |
| 20260502103625 | 0 | 360 | 0.0 | 0.0 | 0.00 | 0.00 | 0.00 | 84 | 1019.7 |
| 20260502103149 | 0 | 360 | 0.0 | 0.0 | 0.00 | 0.00 | 0.00 | 84 | 1019.7 |
| 20260502102639 | 0 | 360 | 0.0 | 0.0 | 0.00 | 0.00 | 0.00 | 83 | 1019.6 |
| 20260502102130 | 0 | 360 | 0.0 | 0.0 | 0.00 | 0.00 | 0.00 | 83 | 1019.5 |
| 20260502101650 | 0 | 290 | 0.0 | 0.0 | 0.00 | 0.00 | 0.00 | 83 | 1019.5 |
| 20260502101141 | 0 | 360 | 0.0 | 0.0 | 0.00 | 0.00 | 0.00 | 83 | 1019.4 |
| 20260502100627 | 0 | 360 | 0.0 | 1.6 | 0.00 | 0.00 | 0.00 | 83 | 1019.4 |
| 20260502100142 | 0 | 360 | 0.0 | 1.6 | 0.00 | 0.00 | 0.00 | 83 | 1019.4 |
| 20260502091136 | 1 | 290 | 0.0 | 0.0 | 0.00 | 0.00 | 0.00 | 80 | 1019.2 |
| 20260502090640 | 1 | 290 | 0.0 | 0.0 | 0.00 | 0.00 | 0.00 | 80 | 1019.2 |
| 20260502090155 | 1 | 360 | 0.0 | 1.6 | 0.00 | 0.00 | 0.00 | 80 | 1019.2 |
| 20260502071140 | 2 | 360 | 0.0 | 4.8 | 0.00 | 0.00 | 0.00 | 77 | 1019.0 |
| 20260502070649 | 2 | 360 | 0.0 | 4.8 | 0.00 | 0.00 | 0.00 | 76 | 1019.0 |
| 20260502070144 | 2 | 360 | 0.0 | 3.2 | 0.00 | 0.00 | 0.00 | 76 | 1019.0 |
| 20260502065635 | 2 | 360 | 0.0 | 1.6 | 0.00 | 0.00 | 0.00 | 76 | 1019.0 |
| 20260502065144 | 2 | 360 | 0.0 | 0.0 | 0.00 | 0.00 | 0.00 | 76 | 1019.0 |
| 20260502064645 | 2 | 360 | 0.0 | 3.2 | 0.00 | 0.00 | 0.00 | 75 | 1019.0 |
| 20260502064125 | 2 | 360 | 0.0 | 3.2 | 0.00 | 0.00 | 0.00 | 75 | 1019.1 |
| 20260502063704 | 2 | 360 | 0.0 | 4.8 | 0.00 | 0.00 | 0.00 | 75 | 1019.2 |